Torna al catalogo

EOSSAT-1

AttivoScienzaSSO
NORAD 55053·PAYLOAD·🇿🇦 South Africa

Lanciato Jan 3, 2023 da Cape Canaveral Space Force Station

Loading…

Prossimi Passaggi (prossime 24 ore)

TLE

AggiornatoSource: Space-Track

Epoca: Sep 14, 2026, 02:59 UTC

1 55053U 23001AW  26257.12454969  .00004324  00000-0  13233-3 0  9994
2 55053  97.3143 316.9577 0009701 149.6594 210.5212 15.34325461205554

Traccia EOSSAT-1 in tempo reale con AllMySat

Download on the App Store